Flag for India Weather past 2 weeks in Kapurthala, Punjab, India

Now
84 °F

Passing clouds.


Feels Like: 83 °F
Forecast: 75 / 105 °F
Wind: 12 mph from East

Location: Amritsar Airport

Current Time: May 26, 2015 at 2:16:34 AM

Latest Report: May 26, 2015 at 1:30 AM


Visibility: 2 mi

Pressure: 29.50 "Hg

Humidity: 35%

Dew point: 54 °F

Location of KapurthalaLocation

Historic Weather in Kapurthala — Graph

°F

Kapurthala temperature yesterday

Maximum temperature yesterday: 109 °F (at 4:30 PM)
Minimum temperature yesterday: 79 °F (at 5:30 AM)
Average temperature yesterday: 95 °F

Past Weeks' High & Low Weather Summary

 TemperatureHumidityPressure
High109 °F (May 23, 2:30 PM)100% (May 13, 2:00 AM)29.89 "Hg (May 13, 2:00 AM)
Low68 °F (May 13, 2:00 AM)11% (May 23, 2:30 PM)29.42 "Hg (May 23, 4:00 PM)
Average88 °F45%29.64 "Hg
* Reported May 11 12:30 AM — May 26 1:00 AM, Kapurthala, Weather by CustomWeather, © 2015

Note: Actual official high and low records may vary slightly from our data, if they occured in-between our weather recording intervals... More about our weather records

Advertising

Kapurthala weather history for previous 24 hours

 ConditionsComfort  
Time TempWeatherWind HumidityBarometerVisibility
1:00 AM
Tue, May 26
84 °FPassing clouds.12 mph35%29.50 "Hg2 mi
12:30 AM84 °FPassing clouds.6 mph33%29.50 "Hg2 mi
12:00 AM86 °FPassing clouds.8 mph31%29.50 "Hg2 mi
11:30 PM
Mon, May 25
90 °FPassing clouds.9 mph27%29.53 "Hg2 mi
10:30 PM91 °FPassing clouds.2 mph23%29.50 "Hg3 mi
10:00 PM93 °FPassing clouds.8 mph21%29.47 "Hg3 mi
9:30 PM93 °FPassing clouds.3 mph24%29.47 "Hg3 mi
8:00 PM97 °FPassing clouds.No wind27%29.42 "Hg3 mi
7:30 PM100 °FPassing clouds.No wind25%29.42 "Hg3 mi
7:00 PM100 °FPartly sunny.3 mph24%29.42 "Hg3 mi
6:30 PM104 °FPartly sunny.8 mph20%29.42 "Hg3 mi
5:30 PM106 °FPartly sunny.5 mph17%29.42 "Hg3 mi
5:00 PM109 °FScattered clouds.3 mph14%29.45 "Hg3 mi
4:30 PM109 °FScattered clouds.3 mph14%29.45 "Hg3 mi
3:00 PM108 °FPassing clouds.6 mph15%29.47 "Hg3 mi
2:30 PM106 °FDuststorm.7 mph15%29.47 "Hg3 mi
2:00 PM108 °FScattered clouds.7 mph15%29.50 "Hg3 mi
1:30 PM106 °FScattered clouds.5 mph15%29.50 "Hg3 mi
1:00 PM106 °FScattered clouds.2 mph17%29.50 "Hg3 mi
12:00 PM102 °FPassing clouds.7 mph18%29.53 "Hg3 mi
11:30 AM102 °FPassing clouds.5 mph20%29.50 "Hg3 mi
11:00 AM100 °FPassing clouds.8 mph21%29.53 "Hg3 mi
10:30 AM99 °FScattered clouds.10 mph22%29.53 "Hg3 mi
10:00 AM97 °FScattered clouds.9 mph25%29.53 "Hg3 mi
9:30 AM95 °FScattered clouds.9 mph28%29.53 "Hg3 mi
8:30 AM90 °FScattered clouds.7 mph33%29.53 "Hg3 mi
8:00 AM86 °FScattered clouds.6 mph40%29.53 "Hg2 mi
7:30 AM82 °FScattered clouds.5 mph42%29.53 "Hg2 mi
7:00 AM84 °FPartly sunny.3 mph40%29.50 "Hg2 mi
5:30 AM79 °FPassing clouds.1 mph51%29.50 "Hg2 mi
5:00 AM84 °FPassing clouds.5 mph37%29.50 "Hg2 mi
4:00 AM82 °FPassing clouds.1 mph42%29.47 "Hg2 mi
3:30 AM84 °FPassing clouds.6 mph40%29.47 "Hg2 mi
2:30 AM86 °FPassing clouds.9 mph35%29.47 "Hg2 mi
2:00 AM86 °FPassing clouds.9 mph35%29.50 "Hg2 mi
Weather by CustomWeather, © 2015

See weather overviewHow to use our weather pages